Wind_Speed
56 55 55 56 55 55 53 52 52 51 50 49 48 47 46 45 44 43 41 40 38 37 36 35 34 32 32 31 29 29 28 27 26 26 25 25 25 24 23 23 22 22 22
57 56 56 56 57 56 55 54 53 52 51 51 50 49 48 47 46 44 43 42 40 39 38 38 36 34 33 33 31 30 30 29 28 28 27 26 26 26 25 25 24 24 24
55 57 56 56 57 56 55 55 54 53 53 52 51 51 50 49 47 46 45 44 43 40 40 39 38 36 35 35 34 32 32 31 30 29 28 27 26 26 26 26 26 25 25
54 55 56 56 56 56 56 56 55 54 54 53 52 52 51 49 48 47 46 45 44 43 41 40 39 38 37 36 35 35 33 32 31 30 29 29 29 28 27 27 27 26 26
53 54 55 56 56 56 56 56 56 55 54 54 53 52 52 51 50 49 48 47 46 45 44 42 41 39 38 37 36 36 34 34 33 32 31 31 30 30 28 28 28 27 27
52 53 54 55 56 56 56 56 57 56 56 55 55 54 53 53 52 51 49 48 47 46 45 44 43 42 39 37 36 37 36 35 35 34 34 33 32 32 31 30 29 29 29
51 53 54 55 56 57 56 56 57 57 56 55 56 56 55 54 53 52 51 50 49 47 46 45 44 43 42 40 39 38 37 36 36 36 35 34 34 34 33 32 31 31 31
48 51 53 55 55 56 57 56 57 57 56 56 56 56 56 55 54 53 53 52 51 49 48 47 47 46 45 44 43 40 39 38 37 36 36 36 36 35 34 33 32 32 32
47 49 52 54 55 56 56 56 57 57 57 56 56 56 57 56 55 54 53 53 52 51 51 49 49 48 47 46 45 43 41 40 39 38 38 37 36 36 36 35 34 34 33
46 48 50 52 54 55 56 56 56 57 57 56 56 55 56 56 56 54 53 53 53 52 52 50 49 48 48 47 45 45 43 42 41 41 40 39 38 37 36 36 35 35 35
45 47 48 51 53 54 56 56 56 57 57 57 57 56 54 54 56 56 55 54 53 53 52 51 50 49 49 48 47 46 45 44 43 42 42 41 41 39 38 38 37 37 36
42 44 47 50 52 53 54 54 55 56 57 57 56 56 56 55 55 56 56 55 54 54 53 52 51 50 50 49 48 47 46 45 44 44 44 43 42 41 40 39 39 38 38
40 42 44 47 50 53 53 53 54 55 56 57 57 57 56 57 56 55 55 56 55 55 53 53 52 51 50 50 49 48 47 46 45 44 44 43 43 42 41 40 40 40 39
39 41 42 44 47 50 52 54 54 55 56 56 57 57 57 57 56 56 56 55 56 55 55 54 53 52 51 51 50 50 49 48 47 46 46 45 45 44 43 42 42 41 41
36 39 41 42 45 47 49 52 54 55 56 56 56 57 57 57 57 58 57 56 56 56 55 55 54 54 53 52 52 51 50 49 49 48 48 47 46 45 45 44 44 44 44
33 36 40 42 44 46 47 49 52 54 55 55 55 56 56 56 56 58 57 57 57 57 56 56 56 55 55 54 53 52 51 50 49 48 48 48 47 46 46 47 47 46 46
31 33 35 40 43 45 46 48 50 52 54 54 54 55 55 55 55 56 57 56 57 57 57 56 56 56 55 55 54 53 52 51 50 50 49 49 49 48 48 48 48 48 48
28 30 32 36 40 43 45 45 49 51 52 53 53 53 54 54 54 55 55 56 56 56 57 56 56 56 56 56 56 55 54 53 52 52 51 51 50 50 49 49 49 48 48
27 28 30 33 36 39 41 43 45 48 50 51 52 52 52 53 54 54 55 55 55 55 56 57 56 56 56 56 56 56 55 54 53 53 52 52 52 51 51 50 49 49 48
27 27 29 31 33 37 39 41 43 45 47 48 49 51 51 52 52 53 53 53 54 54 54 55 56 55 55 55 54 55 55 54 54 54 53 52 52 51 51 51 50 49 49
26 27 28 30 32 34 37 39 41 43 45 47 48 48 49 50 51 52 52 52 53 53 53 54 54 55 55 55 55 54 53 53 53 53 53 53 52 52 52 52 50 50 49
24 26 27 29 30 33 35 38 40 41 43 45 46 47 48 49 49 50 51 52 52 53 53 53 53 53 54 54 55 55 55 54 54 54 54 54 53 52 52 51 51 51 50
24 25 26 28 29 31 34 36 39 40 41 43 44 45 45 46 48 48 49 50 51 52 52 52 52 52 53 54 55 55 55 55 55 54 53 53 53 53 53 53 53 52 51
24 25 26 27 28 30 32 35 37 39 40 41 42 43 44 44 46 47 47 48 49 49 49 50 50 51 53 53 53 54 55 55 55 54 54 54 53 53 54 54 54 54 53
22 23 25 26 27 29 30 32 35 37 39 41 42 43 43 44 44 44 44 45 46 47 47 47 48 49 50 51 52 52 53 54 54 54 54 54 54 54 54 54 54 54 54
21 22 24 25 25 27 28 31 33 35 36 37 39 41 42 42 42 42 43 44 44 45 45 45 45 46 46 47 48 49 50 51 51 52 52 53 53 52 53 53 53 53 53
Wind_Direction
233 234 233 233 232 231 231 231 231 232 232 232 231 231 231 232 233 234 234 234 235 236 237 239 239 241 241 243 244 246 248 250 253 255 255 257 259 261 262 264 267 268 269
232 232 232 232 232 231 230 230 231 231 232 232 232 232 232 233 233 234 235 235 235 236 238 238 239 241 243 244 245 246 248 249 252 254 256 257 258 261 263 264 266 268 270
233 232 231 231 232 231 231 230 231 231 231 232 232 232 232 233 233 234 235 236 236 237 237 238 238 240 243 244 245 246 247 250 252 253 255 256 258 260 263 264 266 268 270
234 232 231 230 231 230 230 230 230 231 231 231 232 232 232 232 233 234 235 236 236 237 238 237 239 241 242 243 245 247 247 250 252 254 255 256 259 262 263 264 265 266 268
234 232 231 231 230 230 230 230 230 231 231 231 231 232 232 232 233 234 235 236 237 238 239 238 239 240 241 242 244 246 248 250 252 254 255 256 259 260 263 264 264 266 268
234 232 231 230 230 230 230 230 230 230 231 231 231 232 232 232 233 234 235 236 237 238 239 240 241 241 241 242 244 246 247 249 252 253 255 257 259 260 262 264 264 265 267
234 232 231 230 230 229 229 230 230 230 231 231 231 232 232 233 234 234 234 236 236 237 239 240 240 241 241 242 244 246 247 250 251 252 254 257 260 261 262 262 264 265 266
236 233 232 231 231 231 229 230 230 230 231 231 232 232 232 233 234 234 235 235 235 237 238 239 240 241 243 244 245 247 248 251 252 253 255 257 259 261 262 263 265 266 266
238 236 233 232 231 231 230 230 231 230 231 231 232 232 232 232 233 234 234 235 235 237 238 239 240 242 243 244 246 247 249 250 252 254 255 257 258 261 263 264 266 266 266
239 237 235 232 231 230 230 230 231 231 231 231 231 232 233 233 233 234 234 235 235 236 238 238 240 241 243 245 246 247 249 251 253 254 256 258 259 260 262 263 264 265 265
240 237 236 233 231 231 230 230 231 231 231 231 231 232 233 233 234 234 234 235 236 236 237 238 239 241 243 244 245 247 249 251 253 254 256 258 260 261 263 263 263 264 264
239 237 235 234 232 231 230 229 230 231 231 231 232 232 233 233 234 234 234 234 236 237 238 238 239 240 242 243 245 246 248 251 253 255 256 258 259 261 262 262 263 264 264
240 236 235 233 232 230 230 230 230 231 231 231 232 232 233 234 234 235 235 235 235 236 238 239 240 240 241 243 245 246 248 250 252 253 255 258 259 260 262 262 263 264 265
240 237 234 232 230 230 229 230 230 230 231 231 232 233 233 233 234 234 235 236 236 237 238 239 240 241 242 243 245 246 248 250 252 253 255 257 259 260 262 262 263 264 265
242 239 235 233 230 230 230 230 230 230 231 232 233 234 234 234 235 235 236 236 237 238 239 240 241 242 244 245 246 248 249 250 252 253 254 256 259 261 262 263 263 264 266
243 240 237 234 231 230 230 231 230 230 231 232 233 234 235 235 237 237 237 237 238 238 239 241 242 243 244 246 247 248 249 250 251 253 254 256 258 260 261 262 263 264 266
243 240 238 235 232 231 231 231 231 231 231 232 233 234 235 235 236 237 237 237 238 239 240 241 242 243 244 245 247 248 249 250 251 252 254 256 258 259 261 262 263 264 265
247 241 239 236 234 232 231 233 232 231 231 232 233 234 235 235 236 237 238 238 238 239 240 241 242 243 244 245 246 247 249 250 251 253 254 256 258 259 260 261 262 263 265
250 245 242 237 233 231 231 233 232 231 232 232 233 234 235 236 236 237 238 239 239 240 240 241 242 243 244 246 246 247 249 250 251 253 254 256 257 258 260 261 262 263 264
252 248 245 240 235 231 231 231 232 232 232 232 233 234 235 237 237 237 238 239 240 240 241 241 242 243 244 246 247 248 249 250 251 253 254 256 257 258 258 260 262 263 263
252 249 246 242 238 233 232 231 231 232 231 232 233 234 236 238 238 238 238 240 241 241 242 243 243 244 245 246 247 248 249 250 251 253 254 254 255 257 258 260 262 263 263
252 249 245 241 239 237 234 232 231 231 231 232 233 234 237 238 238 239 240 240 241 242 243 244 244 245 246 247 248 248 249 250 251 252 254 255 256 257 258 259 261 262 264
253 249 245 242 240 239 236 234 233 231 231 232 232 234 237 238 238 238 239 240 241 243 244 244 245 245 246 247 248 249 249 250 251 253 254 255 256 257 258 260 261 263 265
255 249 245 242 242 240 238 236 234 233 233 232 232 234 236 237 238 238 239 240 241 242 243 244 245 245 246 248 249 249 250 251 251 253 254 256 257 258 259 261 262 264 265
258 253 248 245 244 242 241 239 237 235 234 234 234 235 236 237 238 239 240 241 242 242 244 245 246 247 248 249 250 250 250 251 251 253 254 256 258 259 260 261 262 264 264
260 256 252 249 245 242 242 241 240 237 236 235 235 236 237 238 239 240 240 241 242 243 243 244 245 247 248 248 249 250 250 251 252 253 255 256 258 259 260 261 263 264 265
Height
5686 5692 5699 5705 5711 5717 5723 5729 5736 5742 5747 5753 5758 5764 5769 5774 5779 5784 5789 5793 5798 5802 5806 5810 5813 5816 5820 5822 5825 5827 5829 5831 5833 5835 5837 5838 5840 5841 5842 5843 5843 5844 5845
5672 5679 5686 5692 5699 5706 5712 5718 5725 5731 5737 5743 5749 5754 5760 5765 5770 5776 5781 5785 5790 5794 5798 5802 5806 5809 5813 5816 5819 5821 5824 5825 5828 5830 5831 5833 5835 5835 5837 5838 5838 5839 5840
5660 5667 5673 5680 5687 5694 5701 5707 5714 5720 5726 5732 5738 5744 5750 5755 5761 5766 5772 5776 5781 5786 5790 5794 5798 5802 5806 5809 5812 5815 5817 5819 5821 5823 5826 5827 5829 5830 5831 5832 5833 5833 5834
5646 5654 5661 5668 5675 5682 5689 5696 5702 5709 5715 5721 5728 5734 5740 5746 5752 5758 5762 5767 5772 5777 5781 5785 5790 5794 5798 5802 5804 5807 5810 5812 5815 5817 5819 5821 5823 5824 5825 5826 5827 5827 5828
5635 5642 5649 5656 5663 5670 5677 5684 5691 5698 5704 5711 5717 5723 5730 5736 5742 5748 5753 5758 5763 5768 5773 5777 5782 5786 5790 5794 5797 5800 5803 5805 5807 5810 5812 5814 5815 5817 5819 5820 5821 5821 5822
5623 5630 5637 5644 5651 5658 5665 5672 5679 5686 5693 5699 5706 5713 5719 5726 5732 5738 5743 5749 5754 5759 5764 5768 5773 5777 5782 5785 5789 5792 5795 5798 5800 5802 5804 5806 5808 5810 5811 5813 5814 5814 5815
5611 5618 5625 5631 5638 5645 5653 5660 5667 5674 5681 5688 5695 5702 5708 5715 5721 5727 5733 5739 5744 5749 5754 5759 5764 5768 5773 5777 5780 5784 5787 5790 5792 5795 5797 5799 5800 5802 5803 5805 5806 5807 5808
5599 5606 5612 5619 5626 5633 5641 5648 5655 5663 5670 5676 5683 5690 5697 5704 5710 5716 5723 5728 5734 5739 5744 5749 5754 5759 5763 5767 5771 5775 5778 5781 5784 5786 5788 5790 5792 5794 5795 5797 5798 5799 5800
5588 5594 5600 5607 5614 5621 5629 5636 5643 5651 5658 5665 5672 5678 5685 5692 5699 5705 5711 5717 5723 5728 5733 5739 5744 5748 5753 5757 5761 5765 5769 5772 5775 5778 5780 5782 5784 5785 5786 5788 5789 5791 5792
5577 5582 5588 5595 5602 5609 5616 5624 5631 5639 5646 5653 5660 5666 5673 5680 5687 5693 5699 5706 5712 5717 5723 5728 5733 5738 5743 5747 5751 5756 5759 5763 5766 5768 5771 5773 5775 5776 5778 5779 5781 5782 5783
5566 5571 5577 5583 5590 5597 5604 5612 5619 5627 5634 5641 5649 5655 5661 5668 5675 5682 5688 5694 5700 5706 5712 5717 5722 5727 5732 5737 5741 5746 5749 5753 5756 5759 5761 5763 5765 5767 5769 5770 5771 5773 5774
5555 5560 5565 5571 5578 5585 5592 5600 5607 5615 5622 5629 5637 5644 5650 5657 5663 5670 5676 5683 5689 5695 5701 5706 5711 5716 5721 5726 5731 5735 5739 5743 5746 5749 5751 5753 5755 5758 5760 5761 5762 5763 5765
5545 5550 5555 5560 5567 5574 5581 5588 5596 5603 5610 5617 5624 5631 5638 5645 5652 5658 5664 5671 5677 5683 5689 5695 5700 5705 5710 5715 5720 5724 5728 5732 5735 5738 5741 5743 5745 5748 5749 5751 5753 5754 5755
5535 5540 5545 5550 5556 5562 5569 5577 5584 5591 5598 5605 5612 5619 5626 5633 5640 5646 5652 5659 5665 5671 5677 5683 5689 5694 5699 5704 5708 5712 5717 5721 5724 5727 5730 5733 5735 5737 5739 5741 5742 5744 5745
5527 5530 5535 5540 5546 5552 5558 5565 5572 5580 5587 5594 5600 5607 5614 5621 5627 5633 5640 5646 5652 5659 5665 5671 5676 5682 5687 5692 5696 5701 5705 5709 5713 5716 5719 5722 5724 5726 5728 5730 5731 5733 5734
5518 5522 5526 5530 5536 5542 5548 5554 5561 5568 5575 5582 5589 5596 5602 5608 5614 5621 5627 5634 5640 5646 5652 5658 5664 5669 5675 5680 5684 5689 5693 5697 5701 5704 5707 5710 5713 5715 5717 5718 5720 5721 5722
5511 5514 5517 5521 5526 5532 5538 5544 5550 5557 5564 5571 5577 5584 5590 5596 5602 5608 5614 5620 5627 5633 5639 5646 5651 5657 5662 5667 5672 5676 5681 5685 5689 5692 5695 5698 5701 5703 5705 5706 5707 5709 5710
5503 5506 5509 5513 5517 5522 5528 5534 5540 5546 5553 5559 5566 5572 5578 5584 5590 5596 5602 5608 5614 5620 5627 5633 5638 5644 5649 5654 5659 5663 5668 5672 5676 5680 5683 5685 5688 5690 5692 5694 5695 5697 5698
5496 5498 5501 5505 5509 5513 5518 5523 5529 5535 5542 5548 5555 5561 5567 5573 5578 5584 5590 5595 5601 5607 5613 5619 5625 5631 5636 5641 5646 5650 5655 5659 5663 5666 5669 5672 5675 5677 5679 5681 5683 5684 5685
5489 5491 5494 5497 5500 5504 5509 5514 5519 5525 5531 5537 5544 5550 5555 5561 5567 5572 5578 5583 5589 5594 5600 5606 5612 5617 5623 5627 5632 5637 5641 5646 5650 5653 5656 5659 5661 5663 5665 5667 5669 5671 5672
5483 5485 5487 5490 5493 5496 5500 5505 5510 5515 5521 5527 5533 5539 5544 5549 5555 5560 5566 5571 5577 5582 5588 5594 5599 5604 5609 5614 5618 5623 5627 5631 5635 5638 5642 5644 5647 5650 5652 5654 5656 5657 5659
5476 5478 5480 5482 5485 5488 5492 5496 5501 5506 5511 5517 5523 5528 5533 5538 5543 5549 5554 5559 5564 5570 5575 5580 5586 5590 5595 5600 5604 5608 5613 5617 5621 5624 5628 5630 5633 5636 5638 5640 5642 5644 5645
5470 5471 5473 5475 5478 5481 5484 5488 5492 5497 5502 5507 5512 5518 5523 5527 5532 5537 5543 5547 5552 5558 5563 5568 5573 5577 5582 5586 5590 5594 5598 5602 5607 5610 5613 5616 5619 5621 5624 5626 5628 5629 5631
5463 5464 5466 5468 5470 5473 5476 5480 5484 5488 5493 5497 5503 5507 5512 5517 5521 5526 5531 5536 5541 5546 5550 5555 5560 5564 5568 5572 5576 5580 5584 5588 5592 5596 5599 5602 5605 5607 5610 5612 5614 5615 5617
5457 5458 5460 5461 5463 5466 5468 5472 5475 5479 5484 5488 5493 5497 5502 5507 5512 5516 5521 5525 5530 5534 5539 5543 5547 5551 5555 5559 5563 5566 5570 5574 5578 5581 5584 5588 5591 5593 5595 5597 5599 5600 5602
5451 5452 5453 5455 5456 5458 5461 5464 5467 5471 5475 5479 5484 5488 5493 5497 5502 5506 5510 5514 5519 5523 5527 5531 5535 5539 5542 5546 5549 5553 5556 5560 5564 5567 5570 5573 5576 5578 5580 5582 5584 5585 5586